STARLINK-32941, 63119

Orbit data source: Space-Track

STARLINK-32941, 63119 is a payload satellite owned by SpaceX/Seattle (US) in LEO that was launched on Thu, 27 Feb 2025 UTC via an FALCON 9 launch vehicle from the Air Force Eastern Test Range (AFETR). Payload-class satellites include a variety of spacecraft equipped with specific instruments for various scientific and technological missions. These include communications satellites like Starlink; space stations such as the ISS; scientific satellites like the Hubble; Earth observation satellites from companies like Planet Labs, Umbra, and HawkEye 360; GPS; miniature CubeSats for education and research; and military/defense satellites.

Loading next visibility...
Identifier
63119, 2025-039R
Orbit
LEO
Last TLE update
7 hours ago
Origin
Manufacturer
SpaceX/Seattle
Mission
Operational Commercial Communications
Bus & Motor
STARLINK V2M, Unknown motor
Mass
730 kg wet, ~700 kg dry
Launch date (UTC)
2025-02-27 (4 months ago)
Launch vehicle
FALCON 9
Launch site
Air Force Eastern Test Range (AFETR)
Object type
Payload
Rocket body
Debris
Shape & HBR
Box + 2 Pan, 29 m
Radar Cross Section
33.884 m², Large (>1 m²)

Expand to show TLE details & history

TLE from 7 hours ago
0 STARLINK-32941
1 63119U 25039R   25186.42602719  .00037650  00000-0  90327-3 0  9997
2 63119  43.0008 320.3078 0002684 288.1590  71.8974 15.40726083 21075
Epoch: 2025-07-05T10:13Z
TLE epoch observation values (Epoch: 2025-07-05T10:13:28.749Z)
Latitude
-0.00002°
Longitude
-116.72625°
Altitude
443.171 km
Speed
7.648 km/s
True Right ascension
21h 21m 13s
True Declination
0° 00' 00"
Sunlit
Object was in full shadow at epoch
Visualization orbit readout
Latitude
36.00425°
Longitude
10.85815°
Altitude
447.344 km
Speed
7.648 km/s
Apparent Right ascension
09h 41m 11s
Apparent Declination
-3° 06' 48"
Sunlit
Object is in daylight
Visualization observer readout
Local Sidereal Time
04:53:28
Azimuth
104.214° ESE
Elevation
11.698°
Doppler factor
1
Orbital elements
Apogee altitude
447.753 km
Perigee altitude
444.09 km
Semi-major axis
6,824.058 km
Eccentricity
0.00027
Inclination
43.0008°
RAAN
320.3078°
Arg. of periapsis
288.159°
True anomaly
Unknown
Mean anomaly
71.8974°
Eccentric anomaly
Unknown
Mean motion
3.85016 °/min
Orbital period
93.5 mins
BSTAR
0.00090327
Loading maneuver chart data...
Loading SW <> Apogee altitude chart data...
Loading historical data...
Loading historical data...
Loading historical data...
Loading historical data...
Loading historical data...
Loading historical data...
Loading historical data...

STARLINK-32941 Visibility forecast

Observer location: undefined°, undefined°

Span
Click to sort rows by Start time (UTC) header in descending order
Start Az.
Max El. time (UTC)
Max El. Az.
Max El.
End time (UTC)
End Az.
4 mins2025-07-05 18:31:11.412Z251.212° W2025-07-05 18:33:11.412Z199.041° SSW22.25°2025-07-05 18:35:11.412Z160.626° S
5 mins2025-07-06 12:56:11.412Z241.765° WSW2025-07-06 12:58:11.412Z109.163° ESE43.452°2025-07-06 13:01:11.412Z73.515° E
5 mins2025-07-06 14:34:11.412Z289.371° WNW2025-07-06 14:36:11.412Z0.846° NNE37.462°2025-07-06 14:39:11.412Z72.111° E
5 mins2025-07-06 16:12:11.412Z292.884° NW2025-07-06 16:14:11.412Z340.254° N42.671°2025-07-06 16:17:11.412Z97.677° ESE
|